INTELSAT 602 (IS-602) 1 20315U 89087A 10073.58629147 .00000035 00000-0 10000-3 0 214 2 20315 7.5530 62.7386 0001649 312.0394 186.2020 1.00274384 72431 INTELSAT 603 (IS-603) 1 20523U 90021A 10074.03106755 -.00000111 00000-0 00000+0 0 5767 2 20523 7.0364 64.2801 0002000 316.8683 145.9717 1.00391605 66193 SBS-6 1 20872U 90091A 10072.92558571 -.00000136 00000-0 10000-3 0 1627 2 20872 2.4539 76.9545 0005407 304.9767 55.5796 0.98991646 59454 INTELSAT 605 (IS-605) 1 21653U 91055A 10073.20148345 -.00000082 00000-0 00000-0 0 8849 2 21653 5.1066 69.9466 0004066 218.7269 141.5200 0.99328135 67981 INTELSAT 601 (IS-601) 1 21765U 91075A 10073.08375010 .00000122 00000-0 10000-3 0 9177 2 21765 5.1458 68.9219 0001185 340.8252 199.4717 1.00274161 67126 INTELSAT 701 (IS-701) 1 22871U 93066A 10072.43366697 .00000045 00000-0 10000-3 0 4862 2 22871 0.0053 143.1428 0002392 214.1586 149.7507 1.00273284 59909 INTELSAT 702 (IS-702) 1 23124U 94034A 10073.71714105 -.00000006 00000-0 00000-0 0 3451 2 23124 0.0117 321.5600 0002410 36.1069 138.7018 1.00272364 71834 INTELSAT 2 (IS-2) 1 23175U 94040A 10074.42583230 -.00000031 00000-0 10000-3 0 6114 2 23175 1.1296 79.6263 0002721 268.4250 147.2477 1.00273030 56752 INTELSAT 704 (IS-704) 1 23461U 95001A 10073.53802807 -.00000192 00000-0 10000-3 0 735 2 23461 0.7980 76.9623 0003167 176.3884 106.5948 0.99184148 55589 INTELSAT 705 (IS-705) 1 23528U 95013A 10074.07768428 -.00000274 00000-0 10000-3 0 9877 2 23528 0.3371 80.8139 0003232 278.3344 155.3133 1.00360570 54794 INTELSAT 706 (IS-706) 1 23571U 95023A 10074.78567488 .00000085 00000-0 00000+0 0 670 2 23571 0.0142 96.6912 0002482 257.7794 156.4819 1.00273917 54291 INTELSAT 3R (IS-3R) 1 23764U 96002A 10074.07776350 -.00000271 00000-0 10000-3 0 7641 2 23764 0.5962 80.4066 0003027 278.4494 158.6065 1.00272450 51907 HGS-3 1 23779U 96006A 10073.98831674 .00000150 00000-0 10000-3 0 3440 2 23779 0.0296 207.6445 0002867 156.8579 201.7598 1.00273178 51646 INTELSAT 707 (IS-707) 1 23816U 96015A 10070.45737170 -.00000297 00000-0 10000-3 0 9660 2 23816 0.0028 170.6241 0003117 186.8546 283.1485 1.00271013 51252 GALAXY 9 (G-9) 1 23877U 96033A 10073.45452226 -.00000229 00000-0 10000-3 0 2383 2 23877 1.4726 77.6596 0001997 284.1491 252.7159 1.00270538 50578 INTELSAT 709 (IS-709) 1 23915U 96035A 10074.58734935 .00000019 00000-0 10000-3 0 905 2 23915 0.0073 140.8429 0003655 155.4047 155.6304 1.00093011 50380 INTELSAT 801 (IS-801) 1 24742U 97009A 10072.11255431 -.00000221 00000-0 10000-3 0 7264 2 24742 1.3961 78.8382 0002750 280.3376 182.4694 1.00275885 47775 GALAXY 25 (G-25) 1 24812U 97026A 10074.35535598 -.00000165 00000-0 10000-3 0 343 2 24812 0.0093 166.3941 0002993 197.0997 204.1514 1.00271731 46926 INTELSAT 802 (IS-802) 1 24846U 97031A 10069.89133013 .00000142 00000-0 10000-3 0 9685 2 24846 0.0309 352.4412 0002402 12.3585 157.4260 1.00274304 46591 INTELSAT 5 (IS-5) 1 24916U 97046A 10073.64062891 -.00000035 00000-0 10000-3 0 9190 2 24916 0.0296 115.5789 0000481 252.9086 203.2411 1.00273014 46081 INTELSAT 805 (IS-805) 1 25371U 98037A 10074.35629071 -.00000288 00000-0 10000-3 0 4707 2 25371 0.0308 241.3197 0003270 137.6686 226.6119 1.00273307 43026 INTELSAT 7 (IS-7) 1 25473U 98052A 10073.61235201 -.00000031 00000-0 00000-0 0 9250 2 25473 0.0150 158.6409 0003166 188.1389 114.4292 1.00273482 42103 INTELSAT 8 (IS-8) 1 25522U 98065A 10073.46622211 -.00000061 00000-0 10000-3 0 7652 2 25522 0.0433 262.4797 0002785 90.4240 152.8829 1.00273463 41675 GALAXY 26 (G-26) 1 25626U 99005A 10069.61724983 .00000096 00000-0 00000-0 0 6138 2 25626 0.0361 348.3191 0002837 17.5101 75.2891 1.00273984 40557 INSAT-2E (APR-1) 1 25666U 99016A 10074.59249929 -.00000166 00000-0 10000-3 0 8336 2 25666 0.0492 274.8540 0001898 105.8328 88.6644 1.00270307 40229 GALAXY 27 (G-27) 1 25922U 99052A 10074.42088934 .00000057 00000-0 10000-3 0 6123 2 25922 0.0136 122.3749 0001991 251.7357 181.2929 1.00272054 38341 GALAXY 11 (G-11) 1 26038U 99071A 10069.89421667 .00000142 00000-0 10000-3 0 8499 2 26038 0.0262 342.6373 0000438 17.1500 163.3472 1.00273447 37529 GALAXY 4R (G-4R) 1 26298U 00020A 10072.42595914 -.00000294 00000-0 10000-3 0 7930 2 26298 3.3501 73.2492 0002637 191.4454 168.9774 0.99832739 36364 INTELSAT 9 (IS-9) 1 26451U 00043A 10074.23433052 -.00000288 00000-0 10000-3 0 3626 2 26451 0.0403 259.3437 0002096 78.5041 221.2299 1.00271365 35305 INTELSAT 12 (IS-12) 1 26590U 00068A 10073.96006990 .00000133 00000-0 00000+0 0 4133 2 26590 0.0068 148.2372 0003312 217.2453 197.5819 1.00274353 34369 INTELSAT 1R (IS-1R) 1 26608U 00072A 10070.37874192 -.00000295 00000-0 00000+0 0 1640 2 26608 0.1553 79.1556 0001129 333.5010 202.6162 1.00274657 34175 INTELSAT 10 (IS-10) 1 26766U 01019A 10073.61524209 -.00000029 00000-0 00000+0 0 5254 2 26766 0.0140 196.5069 0001274 181.8568 83.7079 1.00273311 32389 INTELSAT 901 (IS-901) 1 26824U 01024A 10073.13979632 -.00000146 00000-0 10000-3 0 5284 2 26824 0.0072 106.8355 0003331 245.7905 211.3333 1.00272627 32124 INTELSAT 902 (IS-902) 1 26900U 01039A 10073.71052282 .00000029 00000-0 00000+0 0 5321 2 26900 0.0158 156.4647 0003118 218.5712 114.9372 1.00273579 31303 INTELSAT 904 (IS-904) 1 27380U 02007A 10071.97787450 .00000040 00000-0 00000+0 0 5477 2 27380 0.0129 319.9774 0003322 47.5294 215.0041 1.00272145 29539 INTELSAT 903 (IS-903) 1 27403U 02016A 10072.03306920 -.00000247 00000-0 00000+0 0 3131 2 27403 0.0051 267.3583 0002476 106.1666 134.4118 1.00271628 29193 INTELSAT 905 (IS-905) 1 27438U 02027A 10069.96246051 -.00000198 00000-0 10000-3 0 1359 2 27438 0.0379 229.4626 0005184 150.4336 110.5510 1.00271303 28499 GALAXY 3C (G-3C) 1 27445U 02030A 10070.48883564 -.00000163 00000-0 00000+0 0 1375 2 27445 0.0123 28.0075 0000487 128.7071 93.2167 1.00271827 28373 INTELSAT 906 (IS-906) 1 27513U 02041A 10073.71272674 .00000010 00000-0 10000-3 0 3160 2 27513 0.0353 288.9222 0002417 73.1530 130.8410 1.00272435 27580 INTELSAT 907 (IS-907) 1 27683U 03007A 10071.67515668 -.00000212 00000-0 10000-3 0 8730 2 27683 0.0340 1.9622 0002972 2.7582 21.0174 1.00271755 25920 GALAXY 12 (G-12) 1 27715U 03013B 10073.43148197 .00000019 00000-0 10000-3 0 2657 2 27715 0.0299 282.9013 0000637 82.0072 199.4687 1.00274391 25451 GALAXY 23 (G-23) 1 27854U 03034A 10073.50812875 .00000008 00000-0 00000+0 0 1318 2 27854 0.0142 232.7699 0002875 132.1215 229.0381 1.00273578 24217 GALAXY 13 (HORIZONS-1) 1 27954U 03044A 10073.46563362 .00000043 00000-0 10000-3 0 121 2 27954 0.0075 168.4192 0002011 280.2811 123.8965 1.00274478 23695 INTELSAT 10-02 1 28358U 04022A 10071.90565025 -.00000020 00000-0 10000-3 0 8216 2 28358 0.0173 147.3745 0000883 186.1324 161.9717 1.00272358 21063 GALAXY 28 (G-28) 1 28702U 05022A 10074.35546689 -.00000188 00000-0 10000-3 0 7862 2 28702 0.0218 98.9811 0001187 299.1689 173.6395 1.00272423 17350 GALAXY 14 (G-14) 1 28790U 05030A 10074.42764631 .00000035 00000-0 10000-3 0 8811 2 28790 0.0168 283.3273 0002203 70.5214 207.9930 1.00272078 16775 GALAXY 15 (G-15) 1 28884U 05041A 10073.58358653 .00000074 00000-0 10000-3 0 7830 2 28884 0.0196 267.2002 0002471 91.6032 250.3542 1.00273891 16191 GALAXY 16 (G-16) 1 29236U 06023A 10074.30589492 -.00000129 00000-0 10000-3 0 6821 2 29236 0.0243 155.9510 0003066 210.6974 177.2302 1.00271126 13728 GALAXY 17 (G-17) 1 31307U 07016B 10074.35541144 -.00000177 00000-0 10000-3 0 4576 2 31307 0.0201 99.2184 0003177 275.2913 195.2820 1.00273551 10539 INTELSAT 11 (IS-11) 1 32253U 07044B 10074.07776350 -.00000272 00000-0 00000+0 0 3419 2 32253 0.0080 168.1779 0005021 225.6015 123.7222 1.00270455 8981 HORIZONS 2 1 32388U 07063B 10074.35584712 -.00000255 00000-0 10000-3 0 3471 2 32388 0.0303 252.4535 0001857 126.4806 207.9542 1.00272872 8338 GALAXY 18 (G-18) 1 32951U 08024A 10074.21295644 .00000022 00000-0 10000-3 0 2800 2 32951 0.0190 149.2871 0002843 199.7316 137.3342 1.00274025 6670 INTELSAT 25 (IS-25) 1 33153U 08034A 10072.02979876 -.00000262 00000-0 10000-3 0 3560 2 33153 0.0145 130.6251 0004131 259.1411 122.7205 0.99729771 6182 INTELSAT 14 (IS-14) 1 36097U 09064A 10073.08148458 -.00000280 00000-0 00000+0 0 590 2 36097 0.0044 221.5841 0002199 159.5048 134.8117 1.00272291 1157 INTELSAT 15 (IS-15) 1 36106U 09067A 10074.58020439 -.00000186 00000-0 00000+0 0 559 2 36106 0.0113 129.9396 0002473 235.2280 101.8917 1.00270502 1061 INTELSAT 16 (IS-16) 1 36397U 10006A 10074.09632497 -.00000263 00000-0 10000-3 0 400 2 36397 0.0469 328.0210 0012859 303.1299 243.2694 0.99659846 306